Weather History for Boothville, LA

Change the Weather History Date:

Tuesday, April 22, 2014

  Actual Average Record
Temperature  
Mean Temperature 66 °F -  
Max Temperature 73 °F - - ()
Min Temperature 60 °F - - ()
Cooling Degree Days 2    
Growing Degree Days 16 (Base 50)    
Moisture  
Dew Point 64 °F    
Average Humidity 85    
Maximum Humidity 97    
Minimum Humidity 68    
Precipitation  
Precipitation 0.00 in - - ()
Sea Level Pressure  
Sea Level Pressure 29.96 in    
Wind  
Wind Speed 7 mph (WSW)    
Max Wind Speed 16 mph    
Max Gust Speed -    
Visibility 9 miles    
Events Rain    
T = Trace of Precipitation, MM = Missing Value Source: NWS Daily Summary

Daily Weather History Graph

Daily Weather History Graph

Search for Another Location

Airport:

Trip Planner

Search our weather history database for the weather conditions in past years. The results will help you decide how hot, cold, wet, or windy it might be!

Date:

Astronomy

Apr. 22, 2014 Rise Set
Actual Time 6:24 AM CDT 7:28 PM CDT
Civil Twilight 5:59 AM CDT 7:53 PM CDT
Nautical Twilight 5:30 AM CDT 8:22 PM CDT
Astronomical Twilight 5:00 AM CDT 8:52 PM CDT
Moon 1:40 AM CDT 1:00 PM CDT
Length of Visible Light 13h 53m
Length of Day
13h 04m
Last Quarter, 46% of the Moon is Illuminated
Apr 22
Last Quarter
Apr 29
New
May 6
First Quarter
May 14
Full
May 21
Last Quarter

Hourly Weather History & Observations

Time (CDT) Temp. Dew Point Humidity Pressure Visibility Wind Dir Wind Speed Gust Speed Precip Events Conditions
12:51 AM 60.1 °F 59.0 °F 96% 30.03 in 5.0 mi Calm Calm - N/A   Clear
1:51 AM 61.0 °F 57.9 °F 90% 30.01 in 10.0 mi SSW 3.5 mph - N/A   Clear
2:51 AM 63.0 °F 59.0 °F 87% 29.98 in 10.0 mi SSW 4.6 mph - N/A   Clear
3:51 AM 63.0 °F 59.0 °F 87% 29.99 in 10.0 mi SW 5.8 mph - N/A   Clear
4:51 AM 63.0 °F 61.0 °F 93% 29.98 in 10.0 mi SW 4.6 mph - N/A   Mostly Cloudy
5:51 AM 64.0 °F 61.0 °F 90% 29.99 in 10.0 mi West 5.8 mph - N/A   Mostly Cloudy
6:11 AM 64.0 °F 62.1 °F 93% 29.99 in 10.0 mi West 5.8 mph - N/A   Scattered Clouds
6:51 AM 64.9 °F 62.1 °F 90% 30.00 in 8.0 mi West 5.8 mph - N/A   Clear
7:51 AM 66.9 °F 64.0 °F 90% 30.02 in 9.0 mi West 8.1 mph - N/A   Partly Cloudy
8:51 AM 69.1 °F 63.0 °F 81% 30.01 in 10.0 mi West 10.4 mph - N/A   Partly Cloudy
9:51 AM 71.1 °F 63.0 °F 75% 30.01 in 10.0 mi West 11.5 mph - N/A   Partly Cloudy
10:51 AM 72.0 °F 62.1 °F 71% 30.01 in 10.0 mi WSW 11.5 mph - N/A   Clear
11:51 AM 73.0 °F 63.0 °F 71% 29.99 in 10.0 mi SW 13.8 mph - N/A   Clear
12:51 PM 73.9 °F 63.0 °F 68% 29.97 in 10.0 mi WSW 12.7 mph - N/A   Partly Cloudy
1:43 PM 72.0 °F 64.9 °F 78% 29.96 in 10.0 mi SW 13.8 mph - N/A   Mostly Cloudy
1:51 PM 72.0 °F 64.9 °F 78% 29.96 in 10.0 mi SW 13.8 mph - N/A   Overcast
2:51 PM 71.1 °F 64.9 °F 81% 29.95 in 10.0 mi WSW 15.0 mph - N/A   Overcast
3:07 PM 71.1 °F 66.0 °F 84% 29.94 in 10.0 mi WSW 12.7 mph - N/A   Overcast
3:24 PM 71.1 °F 66.0 °F 84% 29.94 in 10.0 mi WSW 16.1 mph - N/A   Overcast
3:51 PM 72.0 °F 66.0 °F 81% 29.93 in 10.0 mi WSW 13.8 mph - N/A   Overcast
4:51 PM 72.0 °F 66.9 °F 84% 29.91 in 9.0 mi WSW 12.7 mph - N/A   Overcast
5:11 PM 71.1 °F 66.9 °F 87% 29.91 in 9.0 mi WSW 12.7 mph - N/A   Overcast
5:35 PM 71.1 °F 68.0 °F 90% 29.91 in 8.0 mi WSW 9.2 mph - 0.00 in Rain Light Rain
5:51 PM 72.0 °F 66.9 °F 84% 29.90 in 9.0 mi West 11.5 mph - 0.00 in   Overcast
6:10 PM 72.0 °F 66.9 °F 84% 29.89 in 9.0 mi WSW 12.7 mph - N/A   Mostly Cloudy
6:51 PM 73.0 °F 66.9 °F 81% 29.89 in 8.0 mi West 6.9 mph - N/A   Scattered Clouds
7:51 PM 70.0 °F 66.9 °F 90% 29.91 in 6.0 mi West 3.5 mph - N/A   Clear
8:51 PM 70.0 °F 66.9 °F 90% 29.92 in 6.0 mi WSW 4.6 mph - N/A   Clear
9:51 PM 70.0 °F 68.0 °F 93% 29.94 in 7.0 mi WSW 4.6 mph - N/A   Clear
10:51 PM 70.0 °F 69.1 °F 97% 29.94 in 5.0 mi West 5.8 mph - N/A   Clear
11:51 PM 69.1 °F 68.0 °F 96% 29.94 in 4.0 mi WNW 4.6 mph - N/A   Clear